FENGYUN 1C DEB

Satellite information

Favourite Embed

Satellite Type and Status

DEBRISIN ORBIT

Key statistics

Satellite FENGYUN 1C DEB at a glance.

Uptime

9615

Days in orbit

Revolutions

≈ 14.5

Per day

Orbit

SSO

Sun Synchronous Orbit

Inclination

98.7

Latest

Satellite identification and parameters

Extended collection of information and parameters for FENGYUN 1C DEB.

Object identification

Identified? True

Debris? True

Object name: FENGYUN 1C DEB

International designator: 1999-025BTP

Object number (NORAD): 31427

Object ID (CCSDS): 31427

Country: PEOPLES REPUBLIC OF CHINA (PRC)

Current information (Y/N): Y

RCS size: SMALL

Orbital parameters

Period: 98.971 minutes

Inclination: 98.6672 deg

SMA: 7087.597 km

Apoapsis: 732.847 km

Periapsis: 686.077 km

RAAN: 346.1123 deg

Eccentricy: 0.00329939

Argument of periapsis: 341.6776 deg

Mean anomaly: 18.3229 deg

Mean motion: 14.54970624 rev/day

Mean motion (dot): 0.00012702 rev/day2

B* drag term: 0.0029366201 1/REarth

Two-line elements (TLE)

Creation date: Aug. 29, 2025, 9:54 a.m.

Reference frame: TEME

Reference center: EARTH

Epoch: Aug. 29, 2025, 6:05 a.m. UTC

TLE line 0: 0 FENGYUN 1C DEB

TLE line 1: 1 31427U 99025BTP 25241.25359427 .00012702 00000-0 29366-2 0 9993

TLE line 2: 2 31427 98.6672 346.1123 0032994 341.6776 18.3229 14.54970624953451

Live tracking on map

Real-time ground track for satellite FENGYUN 1C DEB.

In-orbit conjunctions

A list of the most updated potential collisions computed for object FENGYUN 1C DEB.

Target Orbit TCA Probability of collision Miss distance Type
COSMOS 968 LEO 2024-10-03 03:22:05 0.0001272551 269.0 (m) PAYLOAD
THORAD AGENA D DEB SSO 2024-09-27 00:56:27 0.0001154343 631.0 (m) DEBRIS

Associated space launch

Chinese polar orbiting meteorological satellite

FENGYUN 1C DEB was lifted into orbit during the mission ‘Long March 4B | Feng Yun 1C’, on board a Long March 4B space rocket.

The launch took place on May 10, 1999, 1:33 a.m. from Launch Complex 7.

For more information about the launch, click the button.

Launch to space Long March 4B | Feng Yun 1C
Long March 4B | Feng Yun 1C

Agency: N/A

Status: Launch Successful

Launch date: May 10, 1999, 1:33 a.m. UTC

Rocket: Long March 4B

Launch pad: Launch Complex 7

Location: Taiyuan Satellite Launch Center, People's Republic of China

...

Latest news about this satellite

There are no fresh news available about this satellite. Check back as we update our databases every day.


Newsletter sign-up

Weekly statistics, charts and insights to help you stay on top of the space industry.